CTN850 LDZA-LSZH

Flight info

Callsign CTN850
Flight time N/A
Altitude 36000
Route PODET DCT ERKIR DCT KPT L856 NEGRA
Aircraft A319/M-SDE3FGHIRWY/LB1

Departure

Time 2026-05-05 14:36
Airport Zagreb Franjo Tuđman International Airport (LDZA)

Arrival

Time N/A
Airport Zürich Airport (LSZH)
Time Latitude Longitude Altitude Speed Heading
2026-05-05 14:15 45.74177 16.07840 359 ft 0 kts 136°
2026-05-05 14:29 45.74181 16.07834 363 ft 4 kts 136°
2026-05-05 14:29 45.74201 16.07807 366 ft 4 kts 136°
2026-05-05 14:29 45.74220 16.07781 362 ft 4 kts 136°
2026-05-05 14:29 45.74235 16.07760 362 ft 4 kts 119°
2026-05-05 14:30 45.74236 16.07735 365 ft 3 kts 47°
2026-05-05 14:30 45.74225 16.07717 359 ft 4 kts 101°
2026-05-05 14:30 45.74229 16.07723 359 ft 0 kts 46°
2026-05-05 14:32 45.74235 16.07731 365 ft 2 kts 46°
2026-05-05 14:32 45.74252 16.07757 359 ft 5 kts 46°
2026-05-05 14:32 45.74286 16.07807 359 ft 9 kts 45°
2026-05-05 14:33 45.74335 16.07880 365 ft 12 kts 46°
2026-05-05 14:33 45.74413 16.07866 359 ft 14 kts 316°
2026-05-05 14:33 45.74492 16.07762 363 ft 17 kts 316°
2026-05-05 14:33 45.74578 16.07645 359 ft 17 kts 316°
2026-05-05 14:34 45.74660 16.07535 357 ft 10 kts 316°
2026-05-05 14:34 45.74674 16.07461 364 ft 9 kts 240°
2026-05-05 14:34 45.74654 16.07427 358 ft 0 kts 225°
2026-05-05 14:34 45.74651 16.07423 358 ft 1 kts 225°
2026-05-05 14:35 45.74640 16.07407 358 ft 7 kts 226°
2026-05-05 14:35 45.74430 16.07088 358 ft 82 kts 227°
2026-05-05 14:35 45.73881 16.06254 367 ft 144 kts 226°
2026-05-05 14:35 45.73186 16.05181 934 ft 145 kts 227°
2026-05-05 14:36 45.72516 16.04093 1594 ft 144 kts 227°
2026-05-05 14:36 45.71858 16.03008 2253 ft 144 kts 228°
2026-05-05 14:36 45.71176 16.01895 2773 ft 158 kts 227°
2026-05-05 14:36 45.70401 16.00636 3158 ft 180 kts 227°
2026-05-05 14:37 45.69513 15.99202 3516 ft 205 kts 227°
2026-05-05 14:37 45.68509 15.97590 3963 ft 229 kts 227°
2026-05-05 14:37 45.67627 15.95562 4415 ft 258 kts 252°
2026-05-05 14:37 45.67688 15.92871 4917 ft 290 kts 285°
2026-05-05 14:38 45.68892 15.90464 5765 ft 311 kts 317°
2026-05-05 14:38 45.70890 15.89195 6691 ft 325 kts 348°
2026-05-05 14:38 45.73164 15.89472 7603 ft 336 kts 17°
2026-05-05 14:38 45.75293 15.90878 8560 ft 338 kts 25°
2026-05-05 14:39 45.77414 15.92383 9532 ft 340 kts 25°
2026-05-05 14:39 45.79538 15.93897 10425 ft 342 kts 25°
2026-05-05 14:39 45.81735 15.95218 11209 ft 344 kts 11°
2026-05-05 14:39 45.84109 15.95510 11993 ft 344 kts 358°
2026-05-05 14:40 45.86522 15.95701 12820 ft 350 kts
2026-05-05 14:40 45.88956 15.96106 13614 ft 355 kts
2026-05-05 14:40 45.91411 15.96600 14323 ft 358 kts
2026-05-05 14:40 45.93896 15.97087 14972 ft 361 kts
2026-05-05 14:41 45.96390 15.96879 15598 ft 360 kts 343°
2026-05-05 14:41 45.98702 15.95578 16233 ft 357 kts 325°
2026-05-05 14:41 46.00607 15.93341 16863 ft 354 kts 308°
2026-05-05 14:41 46.02137 15.90550 17496 ft 357 kts 304°
2026-05-05 14:42 46.03658 15.87701 18136 ft 361 kts 304°
2026-05-05 14:42 46.05202 15.84826 18702 ft 365 kts 305°
2026-05-05 14:42 46.06766 15.81930 19280 ft 368 kts 304°
2026-05-05 14:42 46.07812 15.79997 19676 ft 370 kts 305°
2026-05-05 14:43 46.09398 15.77068 20295 ft 372 kts 305°
2026-05-05 14:43 46.10995 15.74119 20891 ft 375 kts 305°
2026-05-05 14:43 46.12600 15.71140 21456 ft 378 kts 304°
2026-05-05 14:43 46.14212 15.68133 22009 ft 381 kts 304°
2026-05-05 14:44 46.15839 15.65096 22565 ft 385 kts 304°
2026-05-05 14:44 46.17420 15.61965 23108 ft 386 kts 298°
2026-05-05 14:44 46.18781 15.58607 23620 ft 390 kts 297°
2026-05-05 14:44 46.20148 15.55207 24054 ft 393 kts 297°
2026-05-05 14:45 46.21524 15.51786 24512 ft 395 kts 297°
2026-05-05 14:45 46.22906 15.48349 24947 ft 398 kts 297°
2026-05-05 14:45 46.24301 15.44877 25379 ft 401 kts 297°
2026-05-05 14:45 46.25705 15.41383 25801 ft 403 kts 297°
2026-05-05 14:46 46.27113 15.37881 26237 ft 405 kts 297°
2026-05-05 14:46 46.28529 15.34346 26679 ft 407 kts 297°
2026-05-05 14:46 46.29946 15.30787 27060 ft 411 kts 297°
2026-05-05 14:46 46.31378 15.27183 27464 ft 413 kts 297°
2026-05-05 14:47 46.32815 15.23565 27873 ft 416 kts 297°
2026-05-05 14:47 46.34260 15.19926 28301 ft 418 kts 297°
2026-05-05 14:47 46.35711 15.16266 28714 ft 421 kts 297°
2026-05-05 14:47 46.37170 15.12574 29120 ft 423 kts 297°
2026-05-05 14:48 46.38639 15.08863 29509 ft 426 kts 297°
2026-05-05 14:48 46.40116 15.05139 29931 ft 428 kts 297°
2026-05-05 14:48 46.41600 15.01392 30307 ft 429 kts 296°
2026-05-05 14:48 46.43087 14.97625 30594 ft 432 kts 297°
2026-05-05 14:49 46.44580 14.93824 30901 ft 435 kts 297°
2026-05-05 14:49 46.46077 14.90007 31240 ft 437 kts 296°
2026-05-05 14:49 46.47580 14.86175 31589 ft 438 kts 296°
2026-05-05 14:49 46.49084 14.82343 32053 ft 436 kts 297°
2026-05-05 14:50 46.50576 14.78536 32507 ft 434 kts 297°
2026-05-05 14:50 46.52066 14.74725 32945 ft 432 kts 297°
2026-05-05 14:50 46.53543 14.70947 33440 ft 430 kts 297°
2026-05-05 14:50 46.55014 14.67183 33946 ft 427 kts 297°
2026-05-05 14:51 46.56468 14.63450 34456 ft 422 kts 296°
2026-05-05 14:51 46.57902 14.59747 34918 ft 419 kts 296°
2026-05-05 14:51 46.59325 14.56062 35261 ft 418 kts 296°
2026-05-05 14:51 46.60751 14.52380 35579 ft 418 kts 297°
2026-05-05 14:52 46.62179 14.48701 35866 ft 418 kts 296°
2026-05-05 14:52 46.63618 14.44993 35943 ft 424 kts 297°
2026-05-05 14:52 46.66548 14.37398 35949 ft 437 kts 297°
2026-05-05 14:53 46.69565 14.29557 35954 ft 451 kts 297°
2026-05-05 14:53 46.72657 14.21506 35940 ft 451 kts 296°
2026-05-05 14:54 46.74165 14.17589 35947 ft 435 kts 296°
2026-05-05 14:54 46.75630 14.13778 35951 ft 429 kts 296°
2026-05-05 14:54 46.78516 14.06199 35945 ft 427 kts 296°
2026-05-05 14:55 46.81384 13.98619 35945 ft 426 kts 296°
2026-05-05 14:55 46.84251 13.91049 35950 ft 426 kts 296°
2026-05-05 14:56 46.87122 13.83463 35944 ft 426 kts 296°
2026-05-05 14:56 46.89990 13.75884 35940 ft 426 kts 296°
2026-05-05 14:57 46.92853 13.68281 35947 ft 427 kts 296°
2026-05-05 14:57 46.95710 13.60668 35958 ft 427 kts 296°
2026-05-05 14:58 46.98549 13.53083 35941 ft 428 kts 295°
2026-05-05 14:58 47.01396 13.45430 35930 ft 428 kts 296°
2026-05-05 14:59 47.04237 13.37772 35922 ft 427 kts 295°
2026-05-05 14:59 47.07068 13.30123 35923 ft 427 kts 295°
2026-05-05 15:00 47.09444 13.23716 35930 ft 427 kts 295°
2026-05-05 15:00 47.12729 13.14821 35905 ft 426 kts 295°
2026-05-05 15:01 47.15547 13.07143 35877 ft 428 kts 295°
2026-05-05 15:01 47.18367 12.99439 35880 ft 428 kts 295°
2026-05-05 15:02 47.21193 12.91730 35880 ft 428 kts 295°
2026-05-05 15:02 47.24009 12.84018 35894 ft 428 kts 294°
2026-05-05 15:03 47.26808 12.76305 35865 ft 427 kts 294°
2026-05-05 15:03 47.29598 12.68579 35863 ft 427 kts 294°
2026-05-05 15:04 47.32382 12.60871 35856 ft 426 kts 294°
2026-05-05 15:04 47.35166 12.53142 35860 ft 427 kts 294°
2026-05-05 15:05 47.39332 12.41537 35831 ft 426 kts 294°
2026-05-05 15:06 47.42106 12.33797 35821 ft 427 kts 294°
2026-05-05 15:06 47.44870 12.26047 35821 ft 427 kts 294°
2026-05-05 15:07 47.47630 12.18284 35821 ft 426 kts 294°
2026-05-05 15:07 47.50380 12.10505 35807 ft 426 kts 294°
2026-05-05 15:08 47.53081 12.02721 35803 ft 424 kts 289°
2026-05-05 15:08 47.54642 11.94451 35802 ft 418 kts 278°
2026-05-05 15:09 47.55754 11.86002 35795 ft 418 kts 278°
2026-05-05 15:09 47.56862 11.77541 35820 ft 419 kts 277°
2026-05-05 15:10 47.57966 11.69083 35810 ft 418 kts 277°
2026-05-05 15:10 47.59068 11.60616 35809 ft 418 kts 277°
2026-05-05 15:11 47.60162 11.52158 35803 ft 418 kts 277°
2026-05-05 15:11 47.61244 11.43685 35810 ft 418 kts 277°
2026-05-05 15:12 47.62320 11.35209 35827 ft 418 kts 276°
2026-05-05 15:12 47.63393 11.26729 35823 ft 419 kts 276°
2026-05-05 15:13 47.64465 11.18235 35820 ft 419 kts 276°
2026-05-05 15:13 47.65530 11.09734 35831 ft 419 kts 276°
2026-05-05 15:14 47.66585 11.01240 35829 ft 420 kts 276°
2026-05-05 15:14 47.67635 10.92712 35860 ft 420 kts 276°
2026-05-05 15:15 47.68676 10.84176 35846 ft 420 kts 275°
2026-05-05 15:15 47.69717 10.75638 35853 ft 421 kts 276°
2026-05-05 15:16 47.70764 10.67075 35858 ft 421 kts 275°
2026-05-05 15:16 47.71791 10.58525 35858 ft 421 kts 275°
2026-05-05 15:17 47.72795 10.50019 35865 ft 421 kts 275°
2026-05-05 15:17 47.73816 10.41377 35851 ft 422 kts 275°
2026-05-05 15:18 47.74531 10.32831 35838 ft 417 kts 265°
2026-05-05 15:18 47.74452 10.28559 35590 ft 410 kts 264°
2026-05-05 15:18 47.74360 10.24359 35339 ft 404 kts 264°
2026-05-05 15:18 47.74261 10.20205 35093 ft 402 kts 263°
2026-05-05 15:19 47.74159 10.16063 34840 ft 401 kts 263°
2026-05-05 15:19 47.74058 10.11933 34547 ft 398 kts 263°
2026-05-05 15:19 47.73960 10.07838 34038 ft 396 kts 263°
2026-05-05 15:19 47.73861 10.03760 33496 ft 394 kts 263°
2026-05-05 15:20 47.73763 9.99712 32939 ft 391 kts 263°
2026-05-05 15:20 47.73666 9.95683 32395 ft 390 kts 263°
2026-05-05 15:20 47.73569 9.91670 31829 ft 388 kts 263°
2026-05-05 15:20 47.73466 9.87654 31263 ft 391 kts 263°
2026-05-05 15:21 47.73358 9.83587 30677 ft 395 kts 263°
2026-05-05 15:21 47.73251 9.79498 30075 ft 399 kts 263°
2026-05-05 15:21 47.73141 9.75372 29395 ft 403 kts 263°
2026-05-05 15:21 47.73027 9.71227 28768 ft 406 kts 263°
2026-05-05 15:22 47.72910 9.67002 28138 ft 405 kts 264°
2026-05-05 15:22 47.72812 9.63437 27618 ft 403 kts 264°
2026-05-05 15:22 47.72696 9.59287 27013 ft 401 kts 264°
2026-05-05 15:22 47.72580 9.55154 26405 ft 400 kts 264°
2026-05-05 15:23 47.72464 9.51040 25794 ft 399 kts 264°
2026-05-05 15:23 47.72178 9.46959 25192 ft 395 kts 256°
2026-05-05 15:23 47.71426 9.43076 24595 ft 390 kts 246°
2026-05-05 15:23 47.70241 9.39496 24020 ft 385 kts 236°
2026-05-05 15:24 47.68684 9.36282 23439 ft 382 kts 229°
2026-05-05 15:24 47.67013 9.33234 22863 ft 380 kts 229°
2026-05-05 15:24 47.66850 9.32936 22802 ft 379 kts 229°
2026-05-05 15:24 47.65326 9.30160 22325 ft 376 kts 229°
2026-05-05 15:25 47.64887 9.29362 22201 ft 375 kts 229°
2026-05-05 15:25 47.63788 9.27361 21878 ft 373 kts 229°
2026-05-05 15:25 47.62153 9.24392 21412 ft 370 kts 230°
2026-05-05 15:25 47.60593 9.21379 20924 ft 368 kts 236°
2026-05-05 15:26 47.59416 9.18023 20450 ft 367 kts 246°
2026-05-05 15:26 47.58700 9.14402 19970 ft 367 kts 257°
2026-05-05 15:26 47.58248 9.10689 19477 ft 365 kts 257°
2026-05-05 15:26 47.57873 9.06975 18984 ft 365 kts 264°
2026-05-05 15:27 47.57955 9.03216 18498 ft 367 kts 275°
2026-05-05 15:27 47.58552 8.99534 17956 ft 370 kts 287°
2026-05-05 15:27 47.59508 8.96004 17416 ft 368 kts 289°
2026-05-05 15:27 47.60470 8.92501 16890 ft 366 kts 289°
2026-05-05 15:28 47.61419 8.89025 16373 ft 363 kts 289°
2026-05-05 15:28 47.62280 8.85529 15855 ft 359 kts 282°
2026-05-05 15:28 47.62657 8.81931 15380 ft 352 kts 270°
2026-05-05 15:28 47.62623 8.79538 15049 ft 348 kts 262°
2026-05-05 15:29 47.62169 8.76056 14621 ft 341 kts 251°
2026-05-05 15:29 47.61325 8.72814 14182 ft 335 kts 246°
2026-05-05 15:29 47.60730 8.70706 13870 ft 334 kts 246°